www.pogodaiklimat.ru

Погода и климат >> Архив погоды >> Ямайка >> Kingston


АРХИВ ПОГОДЫ в Kingston

Время (UTC), дата Ветер
(напр.,м/с)
 
Видим.   Явления Облачность Т
(С)
Тd
(С)
f
(%)
Тe
(С)
Тes
(С)
Комфортность P
(гПа)
Po
(гПа)
Тmin
(С)
Tmax
(С)
R
(мм)
R24
(мм)
S
(см)
06 8.08 В 7 10 км пыль 3/3 660 м
[Cu Sc]
+29.8 +28.0 90 +49 +49 опасность
перегрева
1013.9 1013.7 +26.5 +33.7
09 8.08 С 4 10 км пыль 3/3 660 м
[Cu Sc Ci sp]
+28.7 +21.1 64 +36 +36 очень
душно
1013.3 1013.1
12 8.08 С 5 8000 м пыль 3/3 660 м
[Cu hum Ci fib]
+28.2 +19.6 60 +34 +35 очень
душно
1014.4 1014.2 +27.2 +33.7
15 8.08 ЮВ 11 5000 м пыль 3/3 660 м
[Cu hum Ci fib]
+33.2 +22.7 54 +43 +43 опасность
перегрева
1015.3 1015.1
18 8.08 ЮВ 12 6000 м пыль 4/1 660 м
[Cu hum Ci fib]
+33.3 +24.2 59 +45 +45 опасность
перегрева
1014.4 1014.2 +27.2 +34.3
21 8.08 ЮВ 13 7000 м пыль 3/1 660 м
[Cu hum Ci fib]
+33.5 +23.2 55 +44 +44 опасность
перегрева
1013.2 1013.0
00 9.08 ЮВ 9 10 км пыль 5/1 720 м
[Cu hum Ci sp]
+30.5 +23.5 66 +41 +41 опасность
перегрева
1014.3 1014.1 +27.2 +34.3
03 9.08 В 4 10 км пыль 5/1 720 м
[Cu hum Ci sp]
+29.9 +22.8 66 +40 +40 очень
душно
1015.9 1015.7
06 9.08 С 3 10 км пыль 4/1 660 м
[Cu hum Ci sp]
+28.3 +22.3 70 +37 +37 очень
душно
1015.0 1014.8 +27.2 +34.3
09 9.08 С 3 10 км пыль 3/1 660 м
[Cu hum Ci sp]
+27.6 +22.1 72 +36 +36 очень
душно
1014.5 1014.3
12 9.08 СЗ 2 10 км пыль 3/3 660 м
[Cu Sc]
+27.7 +23.4 77 +37 +39 очень
душно
1015.8 1015.6 +26.6 +34.3
15 9.08 Ю 3 7000 м пыль 6/6 660 м
[Cu Sc]
+31.0 +24.5 68 +43 +49 опасность
перегрева
1016.8 1016.6
18 9.08 ЮВ 10 7000 м пыль 4/4 660 м
[Cu Sc]
+32.3 +26.3 71 +49 +49 опасность
перегрева
1015.0 1014.8 +26.6 +33.0
21 9.08 ЮВ 11 8000 м пыль 6/6 660 м
[Cb cap]
+30.5 +25.4 74 +44 +44 опасность
перегрева
1013.8 1013.6
00 10.08 ЮВ 7 8000 м пыль 6/3 660 м
[Cu med, cong Ci ing]
+30.4 +24.0 69 +42 +42 опасность
перегрева
1014.5 1014.3 +26.6 +33.0
03 10.08 СЗ 3 12 км пыль 3/1 720 м
[Cu hum Ci fib]
+29.3 +24.8 77 +42 +42 опасность
перегрева
1016.1 1015.9
06 10.08 СЗ 2 12 км пыль 3/1 720 м
[Cu hum Ci sp]
+28.0 +25.6 87 +41 +41 опасность
перегрева
1015.0 1014.8 +26.6 +33.0
09 10.08 С 2 12 км пыль 3/1 720 м
[Cu hum Ci sp]
+27.9 +23.3 76 +38 +38 очень
душно
1014.1 1013.9
12 10.08 нст 1 5000 м пыль 4/1 660 м
[Cu hum Ci sp]
+27.1 +23.9 83 +37 +39 очень
душно
1014.9 1014.7 +25.3 +33.0
15 10.08 ЮЗ 2 8000 м пыль 3/1 660 м
[Cu hum Ci sp]
+30.2 +23.5 67 +41 +56 опасность
перегрева
1015.9 1015.7
18 10.08 ЮВ 10 10 км осадки на расстоянии 3/3 600 м
[Cb cap Ci fib]
+31.1 +25.7 73 +46 +46 опасность
перегрева
1014.3 1014.1 +25.3 +32.8
21 10.08 ЮВ 8 10 км в посл. час ливневой дождь 6/5 600 м
[Cb cap Ci sp]
+30.6 +25.3 73 +44 +45 опасность
перегрева
1013.3 1013.1
00 11.08 ЮВ 7 12 км пыль 4/3 600 м
[Cu Sc Ac lent Ci ing]
+29.3 +24.9 77 +42 +42 опасность
перегрева
1013.5 1013.3 +25.3 +32.8
03 11.08 ЮВ 4 12 км пыль 3/3 660 м
[Cu Sc Ci sp]
+28.9 +23.4 72 +39 +39 очень
душно
1016.0 1015.8
06 11.08 СВ 3 15 км пыль 3/1 720 м
[Cu med, cong Ci fib]
+27.8 +23.2 76 +37 +37 очень
душно
1014.9 1014.7 +25.3 +32.8 0.0
09 11.08 Ю 2 15 км пыль 5/1 720 м
[Cu med, cong Ci sp]
+27.7 +23.1 76 +37 +37 очень
душно
1014.3 1014.1
12 11.08 С 3 12 км пыль 8/4 600 м
[Cb cap Ac As Ci ing]
+26.5 +24.2 87 +37 +37 очень
душно
1015.6 1015.4 +25.5 +32.8
15 11.08 ЮВ 8 22 км мгла 6/1 660 м
[Cu Sc Ci sp]
+32.4 +22.9 57 +42 +44 опасность
перегрева
1015.9 1015.7
18 11.08 ЮВ 12 22 км мгла 4/1 660 м
[Cu hum Ci sp]
+31.8 +25.0 67 +45 +45 опасность
перегрева
1014.6 1014.4 +25.5 +33.2
21 11.08 ЮВ 11 22 км мгла 4/1 660 м
[Cu hum Ci sp]
+32.2 +24.9 65 +45 +45 опасность
перегрева
1013.2 1013.0
00 12.08 ЮВ 10 22 км мгла 5/3 660 м
[Cb cap Ac cuf Ci ing]
+30.6 +23.6 66 +41 +41 опасность
перегрева
1014.2 1014.0 +25.5 +33.2
03 12.08 ЮВ 8 24 км мгла 3/3 660 м
[Cu hum Ci fib]
+29.4 +24.8 76 +42 +42 опасность
перегрева
1016.3 1016.1
06 12.08 СВ 2 22 км гроза без осадков 4/4 600 м
[Cb cap]
+28.5 +23.2 73 +38 +38 очень
душно
1015.7 1015.5 +25.0 +33.2
09 12.08 ЮВ 3 10 км 6/6 600 м
[Cb cap]
+29.8 +24.2 72 +42 +42 опасность
перегрева
1014.2 1014.0
12 12.08 В 5 22 км осадки на расстоянии 8/5 600 м
[Cb cap Ac As Ci ing]
+28.3 +22.4 70 +37 +37 очень
душно
1016.3 1016.1 +27.1 +33.2
15 12.08 В 4 28 км дым 9/1 600 м
[Cb cap Ac cuf Ci ing]
+30.2 +21.7 60 +38 +44 очень
душно
1016.9 1016.7
18 12.08 ЮВ 12 30 км мгла 8/1 720 м
[Cu hum Ac As Ci ing]
+33.1 +24.2 60 +45 +45 опасность
перегрева
1015.5 1015.3 +27.1 +33.5
21 12.08 ЮВ 11 30 км мгла 4/1 720 м
[Cu hum Ci sp]
+33.1 +23.0 55 +43 +43 опасность
перегрева
1013.4 1013.2
00 13.08 ЮВ 8 26 км мгла 1/1 720 м
[Cu hum Ci sp]
+30.6 +22.6 62 +40 +40 очень
душно
1013.9 1013.7 +27.1 +33.5
03 13.08 СВ 3 26 км мгла 1/1 720 м
[Cu hum Ci sp]
+30.3 +24.3 70 +42 +42 опасность
перегрева
1016.4 1016.2
06 13.08 нст 1 26 км мгла 1/1 720 м
[Cu hum Ci sp]
+28.2 +23.1 74 +38 +38 очень
душно
1015.4 1015.2 +27.1 +33.5
09 13.08 СЗ 3 26 км гроза без осадков 4/3 600 м
[Cb cap Ci sp]
+27.8 +23.3 77 +38 +38 очень
душно
1014.9 1014.7
12 13.08 нст 1 20 км гроза без осадков 5/3 660 м
[Cb cap Ac cuf Ci ing]
+27.2 +23.7 81 +37 +38 очень
душно
1015.4 1015.2 +26.4 +33.5
15 13.08 ЮВ 2 18 км мгла 8/8 600 м
[Cb cap Ci ing]
+31.9 +23.9 63 +44 +47 опасность
перегрева
1015.1 1014.9
18 13.08 ЮВ 11 18 км мгла 8/5 600 м
[Cu Sc Ci sp]
+32.5 +26.0 69 +48 +49 опасность
перегрева
1013.7 1013.5 +26.4 +33.3
21 13.08 ЮВ 12 12 км мгла 4/3 720 м
[Cu med, cong Ci fib]
+30.6 +25.0 72 +44 +44 опасность
перегрева
1012.0 1011.8
00 14.08 ЮВ 8 15 км мгла 1/1 600 м
[Cu hum Ci sp]
+29.5 +24.9 76 +42 +42 опасность
перегрева
1012.8 1012.6 +26.4 +33.3
03 14.08 С 3 15 км мгла 1/1 660 м
[Cu hum Ci sp]
+28.6 +24.7 79 +41 +41 опасность
перегрева
1014.0 1013.8
06 14.08 СЗ 3 15 км мгла 1/1 660 м
[Cu hum Ci sp]
+27.8 +24.6 83 +39 +39 очень
душно
1013.6 1013.4 +26.4 +33.3
09 14.08 С 2 15 км мгла 1/1 660 м
[Cu hum Ci sp]
+27.5 +23.5 79 +37 +37 очень
душно
1013.1 1012.9
12 14.08 С 4 26 км мгла 3/1 660 м
[Cb cap Ci ing]
+27.4 +23.1 77 +37 +38 очень
душно
1013.6 1013.4 +25.3 +33.3
15 14.08 ЮВ 7 25 км мгла 8/8 600 м
[Cb cap Ac lent Ci ing]
+30.9 +22.1 59 +40 +41 очень
душно
1014.8 1014.6
18 14.08 ЮВ 9 25 км мгла 6/6 600 м
[Cu Sc Ac lent Ci sp]
+31.6 +23.3 61 +42 +43 опасность
перегрева
1013.5 1013.3 +25.3 +33.3
21 14.08 ЮВ 11 26 км мгла 4/4 660 м
[Cb cap Ci sp]
+31.4 +22.4 59 +41 +41 опасность
перегрева
1011.7 1011.5
00 15.08 ЮВ 8 18 км мгла 5/3 720 м
[Sc diur, vesp Ac As Ci sp]
+30.1 +23.0 66 +40 +40 очень
душно
1012.5 1012.3 +25.3 +32.6
03 15.08 ЮВ 5 20 км мгла 3/1 660 м
[Cu med, cong Ci fib]
+28.8 +23.3 72 +39 +39 очень
душно
1014.0 1013.8

 

Местоположение метеостанции Kingston (Ямайка): широта 17.93 долгота -76.78 высота над уровнем моря 14 м.

В архиве по умолчанию представлена погода в Kingston за последнюю неделю. Архивные данные за месяц целиком и за предыдущие месяцы, начиная с января 2011 года, Вы можете получить, выбрав интересующий диапазон дат из раскрывающегося списка и нажав кнопку "Ввод!".


*Определитесь, кто Вы:
робот инопланетянин человек

Внимание! Время в таблицах - всемирное. Для получения местного времени необходимо прибавить поправку, которая в Kingston равна -5 ч.

Смотрите также архив погоды в соседних городах и на ближайших метеорологических станциях:

Погода в Montego Bay (Ямайка) (135 км)
Погода в Cabo Cruz (Куба) (236 км)
Погода в Santiago de Cuba (Куба) (247 км)
Погода в Santiago de Cuba (Куба) (267 км)
Погода в Santa Cruz Del Sur (Куба) (336 км)
Погода в Puerto Padre (Куба) (364 км)
Погода в Cabo Lurecia (Куба) (370 км)
Погода в Punta Lucrecia (Куба) (370 км)
Погода в Punta de Maisi (Куба) (378 км)
Погода в Camaguey (Куба) (402 км)

Пояснения к столбцам:

Ветер - указаны скорость ветра в м/с - средняя за 10 мин, порывы в срок и между сроками (в фигурных скобках) и направление, откуда дует ветер: С - северный, СВ - северо-восточный, В - восточный, ЮВ - юго-восточный, Ю - южный, ЮЗ - юго-западный, З - западный, СЗ - северо-западный.
Видимость - горизонтальная дальность видимости в метрах или километрах. При видимости от 1 до 10 км при отсутствии осадков обычно наблюдается дымка, при ухудшении видимости до 1 км и менее - туман. В сухую погоду видимость может ухудшаться дымом, пылью или мглою.
Явления - указаны атмосферные явления, наблюдавшиеся в срок или в последний час перед сроком; фигурными скобками обозначены явления, наблюдавшиеся между сроками (за 1-3 часа до срока); квадратными скобками обозначены град или гололедные отложения с указанием их диаметра в мм.
Облачность - указаны через наклонную черту общая и нижняя облачность в баллах и высота нижней границы облаков в метрах; квадратными скобками обозначены формы облаков: Ci - перистые, Cs - перисто-слоистые, Cc - перисто-кучевые, Ac - высококучевые, As - высокослоистые, Sc - слоисто-кучевые, Ns - слоисто-дождевые, Cu - кучевые, Cb - кучево-дождевые. Подробнее классификацию облаков см. в Атласе облаков (PDF).
T - Температура воздуха - температура, измеренная на высоте 2 м над землей.
Td - Температура точки росы - температура, при понижении до которой содержащийся в воздухе водяной пар достигнет насыщения.
f - Относительная влажность воздуха - влажноcть воздуха, измеренная на высоте 2 м над землей.
Te - Эффективная температура - температура, которую ощущает одетый по сезону человек в тени. Характеристика душности погоды. При расчете учитывается влияние влажности воздуха и скорости ветра на теплоощущения человека.
Tes - Эффективная температура на солнце - температура, которую ощущает человек, с поправкой на солнечный нагрев. Характеристика знойности погоды. Зависит от высоты солнца над горизонтом, облачности и скорости ветра. Ночью, в пасмурную погоду, а также при ветре 12 м/с и более поправка равна нулю.
P - Атмосферное давление - приведенное к уровню моря атмосферное давление.
Po - Атмосферное давление - измеренное на уровне метеостанции атмосферное давление.
Tmin - Минимальная температура - минимум температуры воздуха на высоте 2 м над землей.
Tmax - Максимальная температура - максимум температуры воздуха на высоте 2 м над землей.
R - Количество осадков - Количество выпавших осадков за период времени, мм. При наведении курсора мыши на число - период времени, за который выпало указанное количество осадков.
R24 - Количество осадков - Количество выпавших осадков за 24 часа, мм.
S - Снежный покров - Высота снежного покрова, см. При наведении курсора мыши на число - состояние снежного покрова и степень покрытия местности в баллах.